Location: Nashville
(36.1660°N, 86.7840°W)
Time: 13:24:45
(UTC-06:00)

Tiros 1 despin weight - Visible Passes

Search period start: 25 January 2022 00:00
Search period end: 04 February 2022 00:00
Orbit: 592 x 641 km, 48.2° (Epoch: 25 January)

Date Brightness Start Highest point End Pass type
(mag) Time Alt. Az. Time Alt. Az. Time Alt. Az.
25 Jan ? 18:36:38 10° NW 18:39:56 19° N 18:41:25 17° NNE visible
26 Jan ? 18:53:20 10° NW 18:56:31 18° N 18:56:51 18° N visible
27 Jan ? 19:09:43 10° NW 19:12:17 19° N 19:12:17 19° N visible
28 Jan ? 17:43:38 10° NW 17:46:49 18° N 17:50:03 10° NE visible
28 Jan ? 19:25:50 10° NW 19:27:45 19° NNW 19:27:45 19° NNW visible
29 Jan ? 18:00:12 10° NW 18:03:24 18° N 18:06:12 11° NE visible
29 Jan ? 19:41:47 10° NW 19:43:14 18° NNW 19:43:14 18° NNW visible
30 Jan ? 18:16:28 10° NW 18:19:56 21° NNE 18:21:45 17° NE visible
30 Jan ? 19:57:42 10° NW 19:58:47 17° NW 19:58:47 17° NW visible
31 Jan ? 18:32:29 10° NW 18:36:24 26° NNE 18:37:21 25° NE visible
31 Jan ? 20:13:42 10° NW 20:14:24 14° NW 20:14:24 14° NW visible
01 Feb ? 18:48:25 10° NW 18:52:44 39° NNE 18:53:03 38° NE visible
01 Feb ? 20:29:55 10° WNW 20:30:06 11° WNW 20:30:06 11° WNW visible
02 Feb ? 19:04:21 10° NW 19:08:52 66° NNE 19:08:52 66° NNE visible
03 Feb ? 17:39:08 10° NW 17:43:11 30° NNE 17:47:16 10° E visible
03 Feb ? 19:20:24 10° WNW 19:24:51 66° SW 19:24:51 66° SW visible
